Year,Month,Day,Hour,Minute,Value (Times are PST for temperature in C)
2017,04,02,00,00,7.90
2017,04,02,00,01,7.90
2017,04,02,00,02,7.90
2017,04,02,00,03,7.90
2017,04,02,00,04,7.90
2017,04,02,00,05,7.90
2017,04,02,00,06,7.90
2017,04,02,00,07,7.90
2017,04,02,00,08,7.90
2017,04,02,00,09,7.90
2017,04,02,00,10,7.90
2017,04,02,00,11,7.90
2017,04,02,00,12,7.90
2017,04,02,00,13,7.90
2017,04,02,00,14,7.90
2017,04,02,00,15,7.90
2017,04,02,00,16,7.90
2017,04,02,00,17,7.90
2017,04,02,00,18,7.90
2017,04,02,00,19,7.90
2017,04,02,00,20,7.90
2017,04,02,00,21,7.90
2017,04,02,00,22,7.90
2017,04,02,00,23,7.80
2017,04,02,00,24,7.80
2017,04,02,00,25,7.80
2017,04,02,00,26,7.80
2017,04,02,00,27,7.80
2017,04,02,00,28,7.80
2017,04,02,00,29,7.80
2017,04,02,00,30,7.80
2017,04,02,00,31,7.80
2017,04,02,00,32,7.80
2017,04,02,00,33,7.80
2017,04,02,00,34,7.80
2017,04,02,00,35,7.80
2017,04,02,00,36,7.80
2017,04,02,00,37,7.80
2017,04,02,00,38,7.80
2017,04,02,00,39,7.80
2017,04,02,00,40,7.80
2017,04,02,00,41,7.80
2017,04,02,00,42,7.80
2017,04,02,00,43,7.80
2017,04,02,00,44,7.80
2017,04,02,00,45,7.80
2017,04,02,00,46,7.80
2017,04,02,00,47,7.80
2017,04,02,00,48,7.80
2017,04,02,00,49,7.80
2017,04,02,00,50,7.80
2017,04,02,00,51,7.80
2017,04,02,00,52,7.80
2017,04,02,00,53,7.80
2017,04,02,00,54,7.80
2017,04,02,00,55,7.80
2017,04,02,00,56,7.80
2017,04,02,00,57,7.80
2017,04,02,00,58,7.80
2017,04,02,00,59,7.80
2017,04,02,01,00,7.80
2017,04,02,01,01,7.80
2017,04,02,01,02,7.80
2017,04,02,01,03,7.70
2017,04,02,01,04,7.70
2017,04,02,01,05,7.70
2017,04,02,01,06,7.70
2017,04,02,01,07,7.70
2017,04,02,01,08,7.70
2017,04,02,01,09,7.70
2017,04,02,01,10,7.70
2017,04,02,01,11,7.70
2017,04,02,01,12,7.70
2017,04,02,01,13,7.70
2017,04,02,01,14,7.70
2017,04,02,01,15,7.70
2017,04,02,01,16,7.80
2017,04,02,01,17,7.70
2017,04,02,01,18,7.70
2017,04,02,01,19,7.70
2017,04,02,01,20,7.70
2017,04,02,01,21,7.70
2017,04,02,01,22,7.70
2017,04,02,01,23,7.60
2017,04,02,01,24,7.60
2017,04,02,01,25,7.60
2017,04,02,01,26,7.60
2017,04,02,01,27,7.60
2017,04,02,01,28,7.60
2017,04,02,01,29,7.60
2017,04,02,01,30,7.60
2017,04,02,01,31,7.60
2017,04,02,01,32,7.60
2017,04,02,01,33,7.60
2017,04,02,01,34,7.60
2017,04,02,01,35,7.60
2017,04,02,01,36,7.60
2017,04,02,01,37,7.60
2017,04,02,01,38,7.60
2017,04,02,01,39,7.60
2017,04,02,01,40,7.60
2017,04,02,01,41,7.60
2017,04,02,01,42,7.60
2017,04,02,01,43,7.60
2017,04,02,01,44,7.70
2017,04,02,01,45,7.60
2017,04,02,01,46,7.60
2017,04,02,01,47,7.60
2017,04,02,01,48,7.60
2017,04,02,01,49,7.60
2017,04,02,01,50,7.60
2017,04,02,01,51,7.60
2017,04,02,01,52,7.60
2017,04,02,01,53,7.60
2017,04,02,01,54,7.60
2017,04,02,01,55,7.60
2017,04,02,01,56,7.60
2017,04,02,01,57,7.60
2017,04,02,01,58,7.60
2017,04,02,01,59,7.60
2017,04,02,02,00,7.60
2017,04,02,02,01,7.60
2017,04,02,02,02,7.50
2017,04,02,02,03,7.50
2017,04,02,02,04,7.50
2017,04,02,02,05,7.50
2017,04,02,02,06,7.50
2017,04,02,02,07,7.50
2017,04,02,02,08,7.50
2017,04,02,02,09,7.50
2017,04,02,02,10,7.50
2017,04,02,02,11,7.40
2017,04,02,02,12,7.40
2017,04,02,02,13,7.40
2017,04,02,02,14,7.40
2017,04,02,02,15,7.40
2017,04,02,02,16,7.40
2017,04,02,02,17,7.40
2017,04,02,02,18,7.50
2017,04,02,02,19,7.50
2017,04,02,02,20,7.50
2017,04,02,02,21,7.40
2017,04,02,02,22,7.40
2017,04,02,02,23,7.40
2017,04,02,02,24,7.40
2017,04,02,02,25,7.40
2017,04,02,02,26,7.40
2017,04,02,02,27,7.40
2017,04,02,02,28,7.40
2017,04,02,02,29,7.40
2017,04,02,02,30,7.40
2017,04,02,02,31,7.40
2017,04,02,02,32,7.40
2017,04,02,02,33,7.40
2017,04,02,02,34,7.30
2017,04,02,02,35,7.30
2017,04,02,02,36,7.30
2017,04,02,02,37,7.30
2017,04,02,02,38,7.30
2017,04,02,02,39,7.40
2017,04,02,02,40,7.40
2017,04,02,02,41,7.40
2017,04,02,02,42,7.40
2017,04,02,02,43,7.30
2017,04,02,02,44,7.30
2017,04,02,02,45,7.30
2017,04,02,02,46,7.30
2017,04,02,02,47,7.30
2017,04,02,02,48,7.30
2017,04,02,02,49,7.30
2017,04,02,02,50,7.30
2017,04,02,02,51,7.30
2017,04,02,02,52,7.30
2017,04,02,02,53,7.30
2017,04,02,02,54,7.30
2017,04,02,02,55,7.30
2017,04,02,02,56,7.30
2017,04,02,02,57,7.30
2017,04,02,02,58,7.30
2017,04,02,02,59,7.30
2017,04,02,03,00,7.30
2017,04,02,03,01,7.30
2017,04,02,03,02,7.40
2017,04,02,03,03,7.40
2017,04,02,03,04,7.40
2017,04,02,03,05,7.40
2017,04,02,03,06,7.30
2017,04,02,03,07,7.30
2017,04,02,03,08,7.30
2017,04,02,03,09,7.30
2017,04,02,03,10,7.30
2017,04,02,03,11,7.30
2017,04,02,03,12,7.30
2017,04,02,03,13,7.30
2017,04,02,03,14,7.30
2017,04,02,03,15,7.30
2017,04,02,03,16,7.30
2017,04,02,03,17,7.30
2017,04,02,03,18,7.30
2017,04,02,03,19,7.30
2017,04,02,03,20,7.30
2017,04,02,03,21,7.30
2017,04,02,03,22,7.30
2017,04,02,03,23,7.20
2017,04,02,03,24,7.30
2017,04,02,03,25,7.30
2017,04,02,03,26,7.20
2017,04,02,03,27,7.20
2017,04,02,03,28,7.20
2017,04,02,03,29,7.20
2017,04,02,03,30,7.20
2017,04,02,03,31,7.10
2017,04,02,03,32,7.10
2017,04,02,03,33,7.10
2017,04,02,03,34,7.10
2017,04,02,03,35,7.00
2017,04,02,03,36,7.00
2017,04,02,03,37,7.00
2017,04,02,03,38,7.00
2017,04,02,03,39,6.90
2017,04,02,03,40,6.90
2017,04,02,03,41,6.90
2017,04,02,03,42,6.90
2017,04,02,03,43,6.90
2017,04,02,03,44,6.90
2017,04,02,03,45,6.90
2017,04,02,03,46,6.90
2017,04,02,03,47,6.90
2017,04,02,03,48,6.80
2017,04,02,03,49,6.80
2017,04,02,03,50,6.80
2017,04,02,03,51,6.80
2017,04,02,03,52,6.80
2017,04,02,03,53,6.80
2017,04,02,03,54,6.80
2017,04,02,03,55,6.80
2017,04,02,03,56,6.80
2017,04,02,03,57,6.80
2017,04,02,03,58,6.80
2017,04,02,03,59,6.80
2017,04,02,04,00,6.80
2017,04,02,04,01,6.80
2017,04,02,04,02,6.80
2017,04,02,04,03,6.80
2017,04,02,04,04,6.80
2017,04,02,04,05,6.80
2017,04,02,04,06,6.70
2017,04,02,04,07,6.70
2017,04,02,04,08,6.70
2017,04,02,04,09,6.70
2017,04,02,04,10,6.70
2017,04,02,04,11,6.70
2017,04,02,04,12,6.70
2017,04,02,04,13,6.70
2017,04,02,04,14,6.70
2017,04,02,04,15,6.70
2017,04,02,04,16,6.70
2017,04,02,04,17,6.70
2017,04,02,04,18,6.70
2017,04,02,04,19,6.70
2017,04,02,04,20,6.70
2017,04,02,04,21,6.70
2017,04,02,04,22,6.70
2017,04,02,04,23,6.70
2017,04,02,04,24,6.70
2017,04,02,04,25,6.70
2017,04,02,04,26,6.70
2017,04,02,04,27,6.70
2017,04,02,04,28,6.70
2017,04,02,04,29,6.70
2017,04,02,04,30,6.70
2017,04,02,04,31,6.60
2017,04,02,04,32,6.60
2017,04,02,04,33,6.60
2017,04,02,04,34,6.60
2017,04,02,04,35,6.60
2017,04,02,04,36,6.60
2017,04,02,04,37,6.60
2017,04,02,04,38,6.60
2017,04,02,04,39,6.60
2017,04,02,04,40,6.60
2017,04,02,04,41,6.60
2017,04,02,04,42,6.60
2017,04,02,04,43,6.60
2017,04,02,04,44,6.60
2017,04,02,04,45,6.50
2017,04,02,04,46,6.40
2017,04,02,04,47,6.40
2017,04,02,04,48,6.40
2017,04,02,04,49,6.40
2017,04,02,04,50,6.40
2017,04,02,04,51,6.40
2017,04,02,04,52,6.40
2017,04,02,04,53,6.40
2017,04,02,04,54,6.40
2017,04,02,04,55,6.40
2017,04,02,04,56,6.40
2017,04,02,04,57,6.40
2017,04,02,04,58,6.40
2017,04,02,04,59,6.40
2017,04,02,05,00,6.40
2017,04,02,05,01,6.40
2017,04,02,05,02,6.40
2017,04,02,05,03,6.40
2017,04,02,05,04,6.40
2017,04,02,05,05,6.40
2017,04,02,05,06,6.40
2017,04,02,05,07,6.40
2017,04,02,05,08,6.40
2017,04,02,05,09,6.40
2017,04,02,05,10,6.40
2017,04,02,05,11,6.40
2017,04,02,05,12,6.40
2017,04,02,05,13,6.40
2017,04,02,05,14,6.40
2017,04,02,05,15,6.40
2017,04,02,05,16,6.40
2017,04,02,05,17,6.40
2017,04,02,05,18,6.40
2017,04,02,05,19,6.40
2017,04,02,05,20,6.40
2017,04,02,05,21,6.40
2017,04,02,05,22,6.40
2017,04,02,05,23,6.40
2017,04,02,05,24,6.40
2017,04,02,05,25,6.40
2017,04,02,05,26,6.40
2017,04,02,05,27,6.40
2017,04,02,05,28,6.40
2017,04,02,05,29,6.40
2017,04,02,05,30,6.40
2017,04,02,05,31,6.40
2017,04,02,05,32,6.40
2017,04,02,05,33,6.40
2017,04,02,05,34,6.40
2017,04,02,05,35,6.40
2017,04,02,05,36,6.30
2017,04,02,05,37,6.30
2017,04,02,05,38,6.30
2017,04,02,05,39,6.30
2017,04,02,05,40,6.30
2017,04,02,05,41,6.30
2017,04,02,05,42,6.30
2017,04,02,05,43,6.30
2017,04,02,05,44,6.30
2017,04,02,05,45,6.40
2017,04,02,05,46,6.40
2017,04,02,05,47,6.40
2017,04,02,05,48,6.40
2017,04,02,05,49,6.40
2017,04,02,05,50,6.40
2017,04,02,05,51,6.40
2017,04,02,05,52,6.40
2017,04,02,05,53,6.40
2017,04,02,05,54,6.40
2017,04,02,05,55,6.40
2017,04,02,05,56,6.30
2017,04,02,05,57,6.30
2017,04,02,05,58,6.30
2017,04,02,05,59,6.30
2017,04,02,06,00,6.30
2017,04,02,06,01,6.40
2017,04,02,06,02,6.40
2017,04,02,06,03,6.40
2017,04,02,06,04,6.40
2017,04,02,06,05,6.40
2017,04,02,06,06,6.40
2017,04,02,06,07,6.40
2017,04,02,06,08,6.40
2017,04,02,06,09,6.30
2017,04,02,06,10,6.30
2017,04,02,06,11,6.30
2017,04,02,06,12,6.20
2017,04,02,06,13,6.20
2017,04,02,06,14,6.20
2017,04,02,06,15,6.20
2017,04,02,06,16,6.20
2017,04,02,06,17,6.20
2017,04,02,06,18,6.10
2017,04,02,06,19,6.10
2017,04,02,06,20,6.10
2017,04,02,06,21,6.10
2017,04,02,06,22,6.00
2017,04,02,06,23,6.00
2017,04,02,06,24,6.00
2017,04,02,06,25,6.00
2017,04,02,06,26,5.90
2017,04,02,06,27,5.90
2017,04,02,06,28,5.90
2017,04,02,06,29,5.80
2017,04,02,06,30,5.80
2017,04,02,06,31,5.80
2017,04,02,06,32,5.80
2017,04,02,06,33,5.80
2017,04,02,06,34,5.70
2017,04,02,06,35,5.70
2017,04,02,06,36,5.70
2017,04,02,06,37,5.70
2017,04,02,06,38,5.70
2017,04,02,06,39,5.70
2017,04,02,06,40,5.70
2017,04,02,06,41,5.70
2017,04,02,06,42,5.70
2017,04,02,06,43,5.70
2017,04,02,06,44,5.70
2017,04,02,06,45,5.70
2017,04,02,06,46,5.70
2017,04,02,06,47,5.70
2017,04,02,06,48,5.70
2017,04,02,06,49,5.70
2017,04,02,06,50,5.70
2017,04,02,06,51,5.70
2017,04,02,06,52,5.70
2017,04,02,06,53,5.70
2017,04,02,06,54,5.70
2017,04,02,06,55,5.70
2017,04,02,06,56,5.70
2017,04,02,06,57,5.70
2017,04,02,06,58,5.70
2017,04,02,06,59,5.60
2017,04,02,07,00,5.60
2017,04,02,07,01,5.60
2017,04,02,07,02,5.60
2017,04,02,07,03,5.60
2017,04,02,07,04,5.50
2017,04,02,07,05,5.50
2017,04,02,07,06,5.50
2017,04,02,07,07,5.50
2017,04,02,07,08,5.40
2017,04,02,07,09,5.40
2017,04,02,07,10,5.30
2017,04,02,07,11,5.40
2017,04,02,07,12,5.40
2017,04,02,07,13,5.40
2017,04,02,07,14,5.40
2017,04,02,07,15,5.40
2017,04,02,07,16,5.40
2017,04,02,07,17,5.40
2017,04,02,07,18,5.40
2017,04,02,07,19,5.40
2017,04,02,07,20,5.50
2017,04,02,07,21,5.50
2017,04,02,07,22,5.50
2017,04,02,07,23,5.50
2017,04,02,07,24,5.60
2017,04,02,07,25,5.60
2017,04,02,07,26,5.60
2017,04,02,07,27,5.60
2017,04,02,07,28,5.70
2017,04,02,07,29,5.70
2017,04,02,07,30,5.70
2017,04,02,07,31,5.70
2017,04,02,07,32,5.70
2017,04,02,07,33,5.70
2017,04,02,07,34,5.70
2017,04,02,07,35,5.70
2017,04,02,07,36,5.70
2017,04,02,07,37,5.70
2017,04,02,07,38,5.70
2017,04,02,07,39,5.80
2017,04,02,07,40,5.80
2017,04,02,07,41,5.80
2017,04,02,07,42,5.90
2017,04,02,07,43,5.90
2017,04,02,07,44,5.90
2017,04,02,07,45,6.00
2017,04,02,07,46,6.00
2017,04,02,07,47,6.10
2017,04,02,07,48,6.10
2017,04,02,07,49,6.20
2017,04,02,07,50,6.20
2017,04,02,07,51,6.30
2017,04,02,07,52,6.30
2017,04,02,07,53,6.40
2017,04,02,07,54,6.40
2017,04,02,07,55,6.40
2017,04,02,07,56,6.40
2017,04,02,07,57,6.40
2017,04,02,07,58,6.40
2017,04,02,07,59,6.40
2017,04,02,08,00,6.50
2017,04,02,08,01,6.60
2017,04,02,08,02,6.60
2017,04,02,08,03,6.60
2017,04,02,08,04,6.60
2017,04,02,08,05,6.60
2017,04,02,08,06,6.60
2017,04,02,08,07,6.60
2017,04,02,08,08,6.70
2017,04,02,08,09,6.70
2017,04,02,08,10,6.70
2017,04,02,08,11,6.70
2017,04,02,08,12,6.80
2017,04,02,08,13,6.80
2017,04,02,08,14,6.80
2017,04,02,08,15,6.80
2017,04,02,08,16,6.80
2017,04,02,08,17,6.80
2017,04,02,08,18,6.80
2017,04,02,08,19,6.90
2017,04,02,08,20,6.90
2017,04,02,08,21,6.90
2017,04,02,08,22,7.00
2017,04,02,08,23,7.00
2017,04,02,08,24,7.00
2017,04,02,08,25,7.10
2017,04,02,08,26,7.10
2017,04,02,08,27,7.10
2017,04,02,08,28,7.20
2017,04,02,08,29,7.20
2017,04,02,08,30,7.20
2017,04,02,08,31,7.30
2017,04,02,08,32,7.30
2017,04,02,08,33,7.30
2017,04,02,08,34,7.30
2017,04,02,08,35,7.30
2017,04,02,08,36,7.30
2017,04,02,08,37,7.30
2017,04,02,08,38,7.30
2017,04,02,08,39,7.40
2017,04,02,08,40,7.40
2017,04,02,08,41,7.50
2017,04,02,08,42,7.50
2017,04,02,08,43,7.50
2017,04,02,08,44,7.50
2017,04,02,08,45,7.60
2017,04,02,08,46,7.60
2017,04,02,08,47,7.60
2017,04,02,08,48,7.70
2017,04,02,08,49,7.70
2017,04,02,08,50,7.80
2017,04,02,08,51,7.80
2017,04,02,08,52,7.80
2017,04,02,08,53,7.80
2017,04,02,08,54,7.80
2017,04,02,08,55,7.90
2017,04,02,08,56,7.90
2017,04,02,08,57,7.90
2017,04,02,08,58,7.90
2017,04,02,08,59,7.90
2017,04,02,09,00,7.90
2017,04,02,09,01,7.90
2017,04,02,09,02,7.90
2017,04,02,09,03,8.00
2017,04,02,09,04,8.00
2017,04,02,09,05,8.10
2017,04,02,09,06,8.10
2017,04,02,09,07,8.20
2017,04,02,09,08,8.20
2017,04,02,09,09,8.20
2017,04,02,09,10,8.20
2017,04,02,09,11,8.30
2017,04,02,09,12,8.30
2017,04,02,09,13,8.30
2017,04,02,09,14,8.30
2017,04,02,09,15,8.30
2017,04,02,09,16,8.30
2017,04,02,09,17,8.40
2017,04,02,09,18,8.40
2017,04,02,09,19,8.50
2017,04,02,09,20,8.50
2017,04,02,09,21,8.50
2017,04,02,09,22,8.60
2017,04,02,09,23,8.60
2017,04,02,09,24,8.70
2017,04,02,09,25,8.70
2017,04,02,09,26,8.80
2017,04,02,09,27,8.80
2017,04,02,09,28,8.80
2017,04,02,09,29,8.90
2017,04,02,09,30,8.90
2017,04,02,09,31,8.90
2017,04,02,09,32,9.00
2017,04,02,09,33,9.00
2017,04,02,09,34,9.10
2017,04,02,09,35,9.20
2017,04,02,09,36,9.20
2017,04,02,09,37,9.30
2017,04,02,09,38,9.30
2017,04,02,09,39,9.30
2017,04,02,09,40,9.30
2017,04,02,09,41,9.40
2017,04,02,09,42,9.40
2017,04,02,09,43,9.40
2017,04,02,09,44,9.40
2017,04,02,09,45,9.50
2017,04,02,09,46,9.50
2017,04,02,09,47,9.50
2017,04,02,09,48,9.50
2017,04,02,09,49,9.50
2017,04,02,09,50,9.50
2017,04,02,09,51,9.60
2017,04,02,09,52,9.50
2017,04,02,09,53,9.60
2017,04,02,09,54,9.60
2017,04,02,09,55,9.60
2017,04,02,09,56,9.70
2017,04,02,09,57,9.70
2017,04,02,09,58,9.70
2017,04,02,09,59,9.80
2017,04,02,10,00,9.90
2017,04,02,10,01,9.90
2017,04,02,10,02,10.00
2017,04,02,10,03,10.10
2017,04,02,10,04,10.10
2017,04,02,10,05,10.10
2017,04,02,10,06,10.10
2017,04,02,10,07,10.10
2017,04,02,10,08,10.10
2017,04,02,10,09,10.10
2017,04,02,10,10,10.20
2017,04,02,10,11,10.20
2017,04,02,10,12,10.10
2017,04,02,10,13,10.20
2017,04,02,10,14,10.20
2017,04,02,10,15,10.30
2017,04,02,10,16,10.30
2017,04,02,10,17,10.40
2017,04,02,10,18,10.40
2017,04,02,10,19,10.40
2017,04,02,10,20,10.40
2017,04,02,10,21,10.50
2017,04,02,10,22,10.50
2017,04,02,10,23,10.40
2017,04,02,10,24,10.60
2017,04,02,10,25,10.60
2017,04,02,10,26,10.70
2017,04,02,10,27,10.70
2017,04,02,10,28,10.70
2017,04,02,10,29,10.70
2017,04,02,10,30,10.70
2017,04,02,10,31,10.70
2017,04,02,10,32,10.70
2017,04,02,10,33,10.60
2017,04,02,10,34,10.60
2017,04,02,10,35,10.50
2017,04,02,10,36,10.40
2017,04,02,10,37,10.40
2017,04,02,10,38,10.40
2017,04,02,10,39,10.40
2017,04,02,10,40,10.30
2017,04,02,10,41,10.30
2017,04,02,10,42,10.20
2017,04,02,10,43,10.20
2017,04,02,10,44,10.10
2017,04,02,10,45,10.10
2017,04,02,10,46,10.10
2017,04,02,10,47,10.10
2017,04,02,10,48,10.10
2017,04,02,10,49,10.10
2017,04,02,10,50,10.10
2017,04,02,10,51,10.20
2017,04,02,10,52,10.20
2017,04,02,10,53,10.30
2017,04,02,10,54,10.40
2017,04,02,10,55,10.50
2017,04,02,10,56,10.60
2017,04,02,10,57,10.70
2017,04,02,10,58,10.80
2017,04,02,10,59,10.90
2017,04,02,11,00,10.90
2017,04,02,11,01,11.00
2017,04,02,11,02,11.10
2017,04,02,11,03,11.10
2017,04,02,11,04,11.10
2017,04,02,11,05,11.10
2017,04,02,11,06,11.20
2017,04,02,11,07,11.30
2017,04,02,11,08,11.40
2017,04,02,11,09,11.50
2017,04,02,11,10,11.60
2017,04,02,11,11,11.60
2017,04,02,11,12,11.60
2017,04,02,11,13,11.60
2017,04,02,11,14,11.60
2017,04,02,11,15,11.50
2017,04,02,11,16,11.40
2017,04,02,11,17,11.40
2017,04,02,11,18,11.40
2017,04,02,11,19,11.30
2017,04,02,11,20,11.30
2017,04,02,11,21,11.30
2017,04,02,11,22,11.20
2017,04,02,11,23,11.20
2017,04,02,11,24,11.20
2017,04,02,11,25,11.20
2017,04,02,11,26,11.30
2017,04,02,11,27,11.40
2017,04,02,11,28,11.50
2017,04,02,11,29,11.60
2017,04,02,11,30,11.60
2017,04,02,11,31,11.60
2017,04,02,11,32,11.60
2017,04,02,11,33,11.60
2017,04,02,11,34,11.60
2017,04,02,11,35,11.70
2017,04,02,11,36,11.70
2017,04,02,11,37,11.70
2017,04,02,11,38,11.70
2017,04,02,11,39,11.60
2017,04,02,11,40,11.60
2017,04,02,11,41,11.60
2017,04,02,11,42,11.60
2017,04,02,11,43,11.80
2017,04,02,11,44,11.80
2017,04,02,11,45,11.80
2017,04,02,11,46,11.80
2017,04,02,11,47,11.80
2017,04,02,11,48,11.80
2017,04,02,11,49,11.80
2017,04,02,11,50,11.90
2017,04,02,11,51,11.90
2017,04,02,11,52,11.90
2017,04,02,11,53,12.00
2017,04,02,11,54,12.00
2017,04,02,11,55,12.00
2017,04,02,11,56,12.10
2017,04,02,11,57,12.10
2017,04,02,11,58,12.20
2017,04,02,11,59,12.20
2017,04,02,12,00,12.30
2017,04,02,12,01,12.30
2017,04,02,12,02,12.10
2017,04,02,12,03,12.00
2017,04,02,12,04,11.90
2017,04,02,12,05,11.80
2017,04,02,12,06,11.90
2017,04,02,12,07,11.90
2017,04,02,12,08,12.00
2017,04,02,12,09,12.00
2017,04,02,12,10,12.00
2017,04,02,12,11,12.00
2017,04,02,12,12,12.10
2017,04,02,12,13,12.10
2017,04,02,12,14,12.10
2017,04,02,12,15,12.10
2017,04,02,12,16,12.20
2017,04,02,12,17,12.20
2017,04,02,12,18,12.10
2017,04,02,12,19,12.00
2017,04,02,12,20,11.90
2017,04,02,12,21,11.90
2017,04,02,12,22,12.00
2017,04,02,12,23,12.00
2017,04,02,12,24,12.10
2017,04,02,12,25,12.20
2017,04,02,12,26,12.10
2017,04,02,12,27,12.20
2017,04,02,12,28,12.20
2017,04,02,12,29,12.30
2017,04,02,12,30,12.40
2017,04,02,12,31,12.50
2017,04,02,12,32,12.60
2017,04,02,12,33,12.70
2017,04,02,12,34,12.70
2017,04,02,12,35,12.70
2017,04,02,12,36,12.70
2017,04,02,12,37,12.60
2017,04,02,12,38,12.60
2017,04,02,12,39,12.70
2017,04,02,12,40,12.60
2017,04,02,12,41,12.60
2017,04,02,12,42,12.60
2017,04,02,12,43,12.60
2017,04,02,12,44,12.60
2017,04,02,12,45,12.60
2017,04,02,12,46,12.60
2017,04,02,12,47,12.60
2017,04,02,12,48,12.60
2017,04,02,12,49,12.60
2017,04,02,12,50,12.60
2017,04,02,12,51,12.50
2017,04,02,12,52,12.50
2017,04,02,12,53,12.60
2017,04,02,12,54,12.50
2017,04,02,12,55,12.50
2017,04,02,12,56,12.50
2017,04,02,12,57,12.50
2017,04,02,12,58,12.40
2017,04,02,12,59,12.50
2017,04,02,13,00,12.50
2017,04,02,13,01,12.60
2017,04,02,13,02,12.60
2017,04,02,13,03,12.60
2017,04,02,13,04,12.70
2017,04,02,13,05,12.80
2017,04,02,13,06,12.70
2017,04,02,13,07,12.60
2017,04,02,13,08,12.60
2017,04,02,13,09,12.60
2017,04,02,13,10,12.50
2017,04,02,13,11,12.40
2017,04,02,13,12,12.30
2017,04,02,13,13,12.20
2017,04,02,13,14,12.20
2017,04,02,13,15,12.30
2017,04,02,13,16,12.40
2017,04,02,13,17,12.50
2017,04,02,13,18,12.50
2017,04,02,13,19,12.60
2017,04,02,13,20,12.80
2017,04,02,13,21,12.80
2017,04,02,13,22,12.80
2017,04,02,13,23,12.80
2017,04,02,13,24,12.80
2017,04,02,13,25,12.80
2017,04,02,13,26,12.70
2017,04,02,13,27,12.70
2017,04,02,13,28,12.80
2017,04,02,13,29,12.90
2017,04,02,13,30,12.80
2017,04,02,13,31,12.80
2017,04,02,13,32,12.80
2017,04,02,13,33,12.80
2017,04,02,13,34,12.90
2017,04,02,13,35,13.00
2017,04,02,13,36,13.20
2017,04,02,13,37,13.20
2017,04,02,13,38,13.10
2017,04,02,13,39,13.20
2017,04,02,13,40,13.20
2017,04,02,13,41,13.10
2017,04,02,13,42,13.00
2017,04,02,13,43,12.90
2017,04,02,13,44,12.70
2017,04,02,13,45,12.60
2017,04,02,13,46,12.60
2017,04,02,13,47,12.60
2017,04,02,13,48,12.60
2017,04,02,13,49,12.50
2017,04,02,13,50,12.60
2017,04,02,13,51,12.60
2017,04,02,13,52,12.60
2017,04,02,13,53,12.60
2017,04,02,13,54,12.50
2017,04,02,13,55,12.50
2017,04,02,13,56,12.40
2017,04,02,13,57,12.30
2017,04,02,13,58,12.30
2017,04,02,13,59,12.30
2017,04,02,14,00,12.40
2017,04,02,14,01,12.50
2017,04,02,14,02,12.40
2017,04,02,14,03,12.30
2017,04,02,14,04,12.30
2017,04,02,14,05,12.30
2017,04,02,14,06,12.10
2017,04,02,14,07,12.10
2017,04,02,14,08,12.10
2017,04,02,14,09,12.10
2017,04,02,14,10,12.10
2017,04,02,14,11,12.10
2017,04,02,14,12,12.10
2017,04,02,14,13,12.10
2017,04,02,14,14,12.10
2017,04,02,14,15,12.20
2017,04,02,14,16,12.30
2017,04,02,14,17,12.40
2017,04,02,14,18,12.50
2017,04,02,14,19,12.60
2017,04,02,14,20,12.60
2017,04,02,14,21,12.70
2017,04,02,14,22,12.60
2017,04,02,14,23,12.70
2017,04,02,14,24,12.80
2017,04,02,14,25,12.90
2017,04,02,14,26,13.10
2017,04,02,14,27,13.00
2017,04,02,14,28,12.90
2017,04,02,14,29,12.80
2017,04,02,14,30,12.70
2017,04,02,14,31,12.80
2017,04,02,14,32,12.90
2017,04,02,14,33,12.90
2017,04,02,14,34,12.90
2017,04,02,14,35,13.00
2017,04,02,14,36,13.00
2017,04,02,14,37,13.00
2017,04,02,14,38,13.00
2017,04,02,14,39,13.00
2017,04,02,14,40,13.00
2017,04,02,14,41,13.00
2017,04,02,14,42,12.90
2017,04,02,14,43,12.80
2017,04,02,14,44,12.60
2017,04,02,14,45,12.40
2017,04,02,14,46,12.30
2017,04,02,14,47,12.30
2017,04,02,14,48,12.30
2017,04,02,14,49,12.20
2017,04,02,14,50,12.10
2017,04,02,14,51,12.10
2017,04,02,14,52,12.00
2017,04,02,14,53,11.90
2017,04,02,14,54,11.90
2017,04,02,14,55,12.00
2017,04,02,14,56,11.90
2017,04,02,14,57,11.80
2017,04,02,14,58,11.80
2017,04,02,14,59,11.90
2017,04,02,15,00,11.90
2017,04,02,15,01,11.90
2017,04,02,15,02,12.00
2017,04,02,15,03,12.10
2017,04,02,15,04,12.10
2017,04,02,15,05,12.20
2017,04,02,15,06,12.20
2017,04,02,15,07,12.20
2017,04,02,15,08,12.10
2017,04,02,15,09,12.00
2017,04,02,15,10,11.90
2017,04,02,15,11,11.80
2017,04,02,15,12,11.80
2017,04,02,15,13,11.80
2017,04,02,15,14,11.80
2017,04,02,15,15,11.80
2017,04,02,15,16,11.80
2017,04,02,15,17,11.80
2017,04,02,15,18,11.80
2017,04,02,15,19,11.80
2017,04,02,15,20,11.80
2017,04,02,15,21,11.80
2017,04,02,15,22,11.80
2017,04,02,15,23,11.70
2017,04,02,15,24,11.80
2017,04,02,15,25,11.80
2017,04,02,15,26,11.80
2017,04,02,15,27,11.90
2017,04,02,15,28,12.00
2017,04,02,15,29,12.10
2017,04,02,15,30,12.20
2017,04,02,15,31,12.30
2017,04,02,15,32,12.50
2017,04,02,15,33,12.60
2017,04,02,15,34,12.60
2017,04,02,15,35,12.60
2017,04,02,15,36,12.50
2017,04,02,15,37,12.50
2017,04,02,15,38,12.60
2017,04,02,15,39,12.60
2017,04,02,15,40,12.70
2017,04,02,15,41,12.70
2017,04,02,15,42,12.60
2017,04,02,15,43,12.60
2017,04,02,15,44,12.50
2017,04,02,15,45,12.40
2017,04,02,15,46,12.30
2017,04,02,15,47,12.20
2017,04,02,15,48,12.00
2017,04,02,15,49,11.90
2017,04,02,15,50,11.80
2017,04,02,15,51,11.80
2017,04,02,15,52,11.70
2017,04,02,15,53,11.60
2017,04,02,15,54,11.60
2017,04,02,15,55,11.60
2017,04,02,15,56,11.60
2017,04,02,15,57,11.50
2017,04,02,15,58,11.40
2017,04,02,15,59,11.40
2017,04,02,16,00,11.30
2017,04,02,16,01,11.30
2017,04,02,16,02,11.20
2017,04,02,16,03,11.20
2017,04,02,16,04,11.10
2017,04,02,16,05,11.10
2017,04,02,16,06,11.10
2017,04,02,16,07,11.10
2017,04,02,16,08,11.10
2017,04,02,16,09,11.10
2017,04,02,16,10,11.00
2017,04,02,16,11,10.90
2017,04,02,16,12,10.90
2017,04,02,16,13,10.90
2017,04,02,16,14,11.00
2017,04,02,16,15,11.10
2017,04,02,16,16,11.20
2017,04,02,16,17,11.30
2017,04,02,16,18,11.40
2017,04,02,16,19,11.60
2017,04,02,16,20,11.70
2017,04,02,16,21,11.80
2017,04,02,16,22,12.00
2017,04,02,16,23,12.00
2017,04,02,16,24,12.20
2017,04,02,16,25,12.30
2017,04,02,16,26,12.30
2017,04,02,16,27,12.30
2017,04,02,16,28,12.30
2017,04,02,16,29,12.40
2017,04,02,16,30,12.50
2017,04,02,16,31,12.50
2017,04,02,16,32,12.60
2017,04,02,16,33,12.80
2017,04,02,16,34,12.80
2017,04,02,16,35,12.80
2017,04,02,16,36,12.90
2017,04,02,16,37,12.80
2017,04,02,16,38,12.70
2017,04,02,16,39,12.60
2017,04,02,16,40,12.50
2017,04,02,16,41,12.50
2017,04,02,16,42,12.60
2017,04,02,16,43,12.60
2017,04,02,16,44,12.70
2017,04,02,16,45,12.80
2017,04,02,16,46,12.70
2017,04,02,16,47,12.70
2017,04,02,16,48,12.60
2017,04,02,16,49,12.40
2017,04,02,16,50,12.20
2017,04,02,16,51,12.00
2017,04,02,16,52,11.80
2017,04,02,16,53,11.70
2017,04,02,16,54,11.60
2017,04,02,16,55,11.40
2017,04,02,16,56,11.30
2017,04,02,16,57,11.40
2017,04,02,16,58,11.40
2017,04,02,16,59,11.30
2017,04,02,17,00,11.30
2017,04,02,17,01,11.20
2017,04,02,17,02,11.10
2017,04,02,17,03,11.10
2017,04,02,17,04,11.10
2017,04,02,17,05,11.00
2017,04,02,17,06,10.90
2017,04,02,17,07,11.00
2017,04,02,17,08,11.10
2017,04,02,17,09,11.20
2017,04,02,17,10,11.30
2017,04,02,17,11,11.40
2017,04,02,17,12,11.40
2017,04,02,17,13,11.40
2017,04,02,17,14,11.40
2017,04,02,17,15,11.30
2017,04,02,17,16,11.20
2017,04,02,17,17,11.20
2017,04,02,17,18,11.20
2017,04,02,17,19,11.10
2017,04,02,17,20,11.10
2017,04,02,17,21,11.00
2017,04,02,17,22,10.90
2017,04,02,17,23,10.80
2017,04,02,17,24,10.70
2017,04,02,17,25,10.60
2017,04,02,17,26,10.50
2017,04,02,17,27,10.40
2017,04,02,17,28,10.40
2017,04,02,17,29,10.40
2017,04,02,17,30,10.40
2017,04,02,17,31,10.30
2017,04,02,17,32,10.20
2017,04,02,17,33,10.10
2017,04,02,17,34,10.10
2017,04,02,17,35,10.10
2017,04,02,17,36,10.20
2017,04,02,17,37,10.30
2017,04,02,17,38,10.30
2017,04,02,17,39,10.40
2017,04,02,17,40,10.40
2017,04,02,17,41,10.40
2017,04,02,17,42,10.40
2017,04,02,17,43,10.50
2017,04,02,17,44,10.60
2017,04,02,17,45,10.60